SB KEPS @ AMSAT $ORB11083.O Orbital Elements 11083.OSCAR
HR AMSAT ORBITAL ELEMENTS FOR OSCAR SATELLITES FROM WA5QGD FORT WORTH,TX March 24, 2011 Send Subscribe/unsubscribe to KEPS at http://www.amsat.org/mailman/listinfo/keps BID: ORB11083.O TO ALL RADIO AMATEURS BT
Satellite: AO-07 Catalog number: 07530 Epoch time: 11083.56174284 Element set: 35 Inclination: 101.3951 deg RA of node: 093.4404 deg Eccentricity: 0.0012124 Arg of perigee: 085.5810 deg Mean anomaly: 274.6642 deg Mean motion: 12.53581679 rev/day Decay rate: -2.7e-07 rev/day^2 Epoch rev: 66358 Checksum: 288
Satellite: FO-29 Catalog number: 24278 Epoch time: 11082.93836888 Element set: 0549 Inclination: 098.5339 deg RA of node: 238.6091 deg Eccentricity: 0.0351300 Arg of perigee: 118.1730 deg Mean anomaly: 245.5355 deg Mean motion: 13.52958780 rev/day Decay rate: -3.8e-07 rev/day^2 Epoch rev: 72093 Checksum: 337
Satellite: SO-33 Catalog number: 25509 Epoch time: 11082.89848911 Element set: 0931 Inclination: 031.4349 deg RA of node: 006.6865 deg Eccentricity: 0.0354318 Arg of perigee: 215.7646 deg Mean anomaly: 141.8759 deg Mean motion: 14.28373779 rev/day Decay rate: -8.2e-07 rev/day^2 Epoch rev: 64807 Checksum: 343
Satellite: RS-22 Catalog number: 27939 Epoch time: 11083.65269505 Element set: 102 Inclination: 097.8562 deg RA of node: 301.6431 deg Eccentricity: 0.0012500 Arg of perigee: 253.3985 deg Mean anomaly: 106.5861 deg Mean motion: 14.63531944 rev/day Decay rate: 1.83e-06 rev/day^2 Epoch rev: 39997 Checksum: 312
Satellite: VO-52 Catalog number: 28650 Epoch time: 11083.29428582 Element set: 750 Inclination: 097.6513 deg RA of node: 130.1877 deg Eccentricity: 0.0028159 Arg of perigee: 080.3074 deg Mean anomaly: 280.1359 deg Mean motion: 14.81953106 rev/day Decay rate: 6.58e-06 rev/day^2 Epoch rev: 31817 Checksum: 313
Satellite: SO-67 Catalog number: 35870 Epoch time: 11083.81098318 Element set: 676 Inclination: 097.2918 deg RA of node: 129.9232 deg Eccentricity: 0.0003016 Arg of perigee: 162.2358 deg Mean anomaly: 318.4322 deg Mean motion: 15.21473638 rev/day Decay rate: 1.322e-05 rev/day^2 Epoch rev: 8411 Checksum: 301
Satellite: HO-68 Catalog number: 36122 Epoch time: 11083.71790125 Element set: 222 Inclination: 100.4250 deg RA of node: 145.7802 deg Eccentricity: 0.0008065 Arg of perigee: 059.7237 deg Mean anomaly: 300.4670 deg Mean motion: 13.16284820 rev/day Decay rate: -4.4e-07 rev/day^2 Epoch rev: 6112 Checksum: 255
/EX SB KEPS @ AMSAT $ORB11083.D Orbital Elements 11083.MICROS
HR AMSAT ORBITAL ELEMENTS FOR THE MICROSATS FROM WA5QGD FORT WORTH,TX March 24, 2011 Send Subscribe/unsubscribe to KEPS at http://www.amsat.org/mailman/listinfo/keps BID: ORB11083.D TO ALL RADIO AMATEURS BT
Satellite: UO-11 Catalog number: 14781 Epoch time: 11083.89602174 Element set: 503 Inclination: 098.0150 deg RA of node: 140.8336 deg Eccentricity: 0.0009927 Arg of perigee: 055.4379 deg Mean anomaly: 304.7768 deg Mean motion: 14.79912393 rev/day Decay rate: 9.6e-07 rev/day^2 Epoch rev: 45332 Checksum: 315
Satellite: AO-16 Catalog number: 20439 Epoch time: 11083.82059425 Element set: 147 Inclination: 098.3751 deg RA of node: 036.2988 deg Eccentricity: 0.0011835 Arg of perigee: 055.8412 deg Mean anomaly: 304.3897 deg Mean motion: 14.31902742 rev/day Decay rate: 5.1e-07 rev/day^2 Epoch rev: 10554 Checksum: 296
Satellite: LO-19 Catalog number: 20442 Epoch time: 11082.93522316 Element set: 0073 Inclination: 098.3371 deg RA of node: 040.1259 deg Eccentricity: 0.0012676 Arg of perigee: 052.7780 deg Mean anomaly: 307.4551 deg Mean motion: 14.32129337 rev/day Decay rate: 2.0e-08 rev/day^2 Epoch rev: 10559 Checksum: 272
Satellite: AO-27 Catalog number: 22825 Epoch time: 11082.88766325 Element set: 776 Inclination: 098.5236 deg RA of node: 029.1357 deg Eccentricity: 0.0008386 Arg of perigee: 160.7224 deg Mean anomaly: 199.4275 deg Mean motion: 14.29332502 rev/day Decay rate: 6.2e-07 rev/day^2 Epoch rev: 91200 Checksum: 311
Satellite: IO-26 Catalog number: 22826 Epoch time: 11082.97268485 Element set: 0518 Inclination: 098.5175 deg RA of node: 029.7217 deg Eccentricity: 0.0009142 Arg of perigee: 155.3658 deg Mean anomaly: 204.7964 deg Mean motion: 14.29592804 rev/day Decay rate: 3.1e-07 rev/day^2 Epoch rev: 91213 Checksum: 322
Satellite: GO-32 Catalog number: 25397 Epoch time: 11082.63329401 Element set: 0438 Inclination: 098.3228 deg RA of node: 079.7882 deg Eccentricity: 0.0001789 Arg of perigee: 133.2263 deg Mean anomaly: 226.9063 deg Mean motion: 14.23199658 rev/day Decay rate: -6.1e-07 rev/day^2 Epoch rev: 65979 Checksum: 335
Satellite: NO-44 Catalog number: 26931 Epoch time: 11082.69253555 Element set: 709 Inclination: 067.0530 deg RA of node: 203.8178 deg Eccentricity: 0.0007137 Arg of perigee: 268.3421 deg Mean anomaly: 091.6850 deg Mean motion: 14.29642021 rev/day Decay rate: 1.99e-06 rev/day^2 Epoch rev: 49470 Checksum: 304
Satellite: SO-50 Catalog number: 27607 Epoch time: 11083.80590316 Element set: 422 Inclination: 064.5581 deg RA of node: 224.0683 deg Eccentricity: 0.0063220 Arg of perigee: 340.4665 deg Mean anomaly: 019.4023 deg Mean motion: 14.71671555 rev/day Decay rate: 2.22e-06 rev/day^2 Epoch rev: 44367 Checksum: 276
Satellite: CO-55 Catalog number: 27844 Epoch time: 11083.52900663 Element set: 72 Inclination: 098.7085 deg RA of node: 093.4574 deg Eccentricity: 0.0010664 Arg of perigee: 082.8816 deg Mean anomaly: 277.3576 deg Mean motion: 14.20781002 rev/day Decay rate: 1.13e-06 rev/day^2 Epoch rev: 40089 Checksum: 305
Satellite: CO-57 Catalog number: 27848 Epoch time: 11082.54372424 Element set: 0020 Inclination: 098.7135 deg RA of node: 091.6464 deg Eccentricity: 0.0010482 Arg of perigee: 088.5724 deg Mean anomaly: 271.6654 deg Mean motion: 14.20564409 rev/day Decay rate: 1.14e-06 rev/day^2 Epoch rev: 40070 Checksum: 291
Satellite: AO-51 Catalog number: 28375 Epoch time: 11083.86930625 Element set: 927 Inclination: 098.0900 deg RA of node: 066.7838 deg Eccentricity: 0.0084174 Arg of perigee: 326.6119 deg Mean anomaly: 032.9779 deg Mean motion: 14.40736329 rev/day Decay rate: 1.52e-06 rev/day^2 Epoch rev: 35392 Checksum: 333
Satellite: CP3 Catalog number: 31129 Epoch time: 11082.72629152 Element set: 0828 Inclination: 097.9078 deg RA of node: 111.8521 deg Eccentricity: 0.0103520 Arg of perigee: 086.5635 deg Mean anomaly: 274.7369 deg Mean motion: 14.52403359 rev/day Decay rate: 3.10e-06 rev/day^2 Epoch rev: 20843 Checksum: 290
Satellite: CO-65 Catalog number: 32785 Epoch time: 11082.66598292 Element set: 0946 Inclination: 097.8571 deg RA of node: 148.1666 deg Eccentricity: 0.0016131 Arg of perigee: 095.4496 deg Mean anomaly: 264.8558 deg Mean motion: 14.81871986 rev/day Decay rate: 1.83e-06 rev/day^2 Epoch rev: 15687 Checksum: 372
Satellite: KKS-1 Catalog number: 33493 Epoch time: 11083.74080714 Element set: 424 Inclination: 098.1135 deg RA of node: 211.1963 deg Eccentricity: 0.0019014 Arg of perigee: 316.5040 deg Mean anomaly: 043.4677 deg Mean motion: 14.81419641 rev/day Decay rate: 9.81e-06 rev/day^2 Epoch rev: 11701 Checksum: 269
Satellite: SOHLA-1 Catalog number: 33496 Epoch time: 11082.94209019 Element set: 0375 Inclination: 098.0719 deg RA of node: 193.6798 deg Eccentricity: 0.0007365 Arg of perigee: 040.9512 deg Mean anomaly: 319.2247 deg Mean motion: 14.69572259 rev/day Decay rate: 1.07e-06 rev/day^2 Epoch rev: 11596 Checksum: 324
Satellite: TISAT-1 Catalog number: 36799 Epoch time: 11083.85714312 Element set: 700 Inclination: 098.1102 deg RA of node: 151.2515 deg Eccentricity: 0.0015393 Arg of perigee: 184.9013 deg Mean anomaly: 175.2033 deg Mean motion: 14.80378280 rev/day Decay rate: 5.92e-06 rev/day^2 Epoch rev: 3783 Checksum: 283
Satellite: STUDSAT Catalog number: 36801 Epoch time: 11083.79572391 Element set: 153 Inclination: 098.1159 deg RA of node: 151.0372 deg Eccentricity: 0.0014067 Arg of perigee: 174.2352 deg Mean anomaly: 185.9023 deg Mean motion: 14.80162644 rev/day Decay rate: 1.531e-05 rev/day^2 Epoch rev: 3781 Checksum: 278
Satellite: RAX Catalog number: 37223 Epoch time: 11082.82823385 Element set: 0116 Inclination: 071.9684 deg RA of node: 227.1148 deg Eccentricity: 0.0019094 Arg of perigee: 081.6414 deg Mean anomaly: 278.6911 deg Mean motion: 14.77282400 rev/day Decay rate: 1.82e-06 rev/day^2 Epoch rev: 01828 Checksum: 291
Satellite: OOREOS Catalog number: 37224 Epoch time: 11076.42207246 Element set: 1095 Inclination: 071.9712 deg RA of node: 241.3960 deg Eccentricity: 0.0017800 Arg of perigee: 096.5373 deg Mean anomaly: 263.7815 deg Mean motion: 14.76929834 rev/day Decay rate: 8.68e-06 rev/day^2 Epoch rev: 01732 Checksum: 305
Satellite: NANOSALD Catalog number: 37225 Epoch time: 11080.41235428 Element set: 0097 Inclination: 071.9730 deg RA of node: 232.2252 deg Eccentricity: 0.0024394 Arg of perigee: 042.6308 deg Mean anomaly: 317.6744 deg Mean motion: 14.82560370 rev/day Decay rate: 5.6672e-04 rev/day^2 Epoch rev: 00903 Checksum: 277
Satellite: FAST1-2 Catalog number: 37227 Epoch time: 11083.50823927 Element set: 0113 Inclination: 071.9750 deg RA of node: 225.9693 deg Eccentricity: 0.0015956 Arg of perigee: 075.6242 deg Mean anomaly: 284.6298 deg Mean motion: 14.76293525 rev/day Decay rate: -1.250e-05 rev/day^2 Epoch rev: 01836 Checksum: 314
/EX SB KEPS @ AMSAT $ORB11083.W Orbital Elements 11083.WEATHER
HR AMSAT ORBITAL ELEMENTS FOR WEATHER SATELLITES FROM WA5QGD FORT WORTH,TX March 24, 2011 Send Subscribe/unsubscribe to KEPS at http://www.amsat.org/mailman/listinfo/keps BID: ORB11083.W TO ALL RADIO AMATEURS BT
Satellite: NOAA-10 Catalog number: 16969 Epoch time: 11082.69460423 Element set: 0439 Inclination: 098.6275 deg RA of node: 113.6109 deg Eccentricity: 0.0013134 Arg of perigee: 113.6834 deg Mean anomaly: 246.5733 deg Mean motion: 14.27448830 rev/day Decay rate: -2.3e-07 rev/day^2 Epoch rev: 27545 Checksum: 301
